Regional Weather Roundup
Issued by NWS Cleveland, OH

Home | Current Version | Previous Version | Text Only | Print | Product List | Glossary Off
Versions: 1 2 3 4 5 6 7 8 9 10 11 12 13 14 15 16 17 18 19 20 21 22 23 24 25 26 27 28 29 30 31 32 33 34 35 36 37 38 39 40 41 42 43 44 45 46 47 48 49 50

252
ASUS41 KCLE 110802
RWRCLE
OHIO REGIONAL WEATHER ROUNDUP
NATIONAL WEATHER SERVICE CLEVELAND, OH
300 AM EST SUN DEC 11 2016

NOTE: "FAIR" INDICATES FEW OR NO CLOUDS BELOW 12,000 FEET WITH NO
SIGNIFICANT WEATHER AND/OR OBSTRUCTIONS TO VISIBILITY.

OHZ001>008-015>018-024>027-034-035-043-044-110900-
   NORTHWEST OHIO

CITY           SKY/WX    TMP DP  RH WIND       PRES   REMARKS
DEFIANCE       LGT SNOW  25  20  81 SE6       30.35F WCI  18
FINDLAY        LGT SNOW  25  20  81 SE7       30.36F WCI  17
TOLEDO EXPRESS LGT SNOW  23  22  96 SE3       30.36F FOG
TOLEDO EXEC    LGT SNOW  24  23  96 S7        30.39F FOG     WCI  16
LIMA           LGT SNOW  24  22  91 S7        30.35F FOG     WCI  16
$$

OHZ009>014-019>023-028>033-038-089-110900-
   NORTHEAST OHIO

CITY           SKY/WX    TMP DP  RH WIND       PRES   REMARKS
CLE-HOPKINS    LGT SNOW  25  19  78 S6        30.44R WCI  18
CLE-LAKEFRONT  LGT SNOW  26  19  74 S9        30.42R WCI  17
CUY CO. ARPT   NOT AVBL
LORAIN-ELYRIA  LGT SNOW  23  19  85 S7        30.41S FOG     WCI  15
ASHTABULA      CLOUDY    23  16  74 SW9       30.41S WCI  13
AKRON-CANTON   LGT SNOW  23  19  85 S6        30.40S VSB 1   WCI  16
WOOSTER        LGT SNOW  22  19  89 S6        30.40S FOG     WCI  14
MANSFIELD      LGT SNOW  22  20  92 SE6       30.36F FOG     WCI  14
YOUNGSTOWN     LGT SNOW  23  17  78 VRB6      30.40S WCI  16
$$

OHZ042-051>053-060>062-070>072-077>081-110900-
  SOUTHWEST OHIO

CITY           SKY/WX    TMP DP  RH WIND       PRES   REMARKS
CINC-COVINGTON CLOUDY    29  18  63 E7        30.34F WCI  22
CINC-LUNKEN    CLOUDY    30  20  66 E3        30.39F
HAMILTON       CLOUDY    29  20  69 E5        30.37F WCI  24
DAYTON         LGT SNOW  25  22  88 SE8       30.35F FOG     WCI  16
WRIGHT-PAT AFB LGT SNOW  26  23  89 E7        30.37F FOG     WCI  18
DAYTON GENERAL CLOUDY    27  19  72 E8        30.33F WCI  19
WILMINGTON     CLOUDY    26  19  74 E7        30.35F WCI  18
$$

OHZ036-037-039>041-045>050-054>059-063>069-073>076-082>088-110900-
  CENTRAL AND SOUTHEAST OHIO

CITY           SKY/WX    TMP DP  RH WIND       PRES   REMARKS
COLUMBUS       LGT SNOW  24  24 100 SE7       30.40F VSB 1   WCI  16
OSU AIRPORT    LGT SNOW  24  23  96 SE6       30.39F VSB 1   WCI  17
BOLTON FIELD   CLOUDY    24  22  91 SE5       30.39F WCI  19
RICKENBACK AFB LGT SNOW  25  22  88 E5        30.40F WCI  19
NEWARK         LGT SNOW  24  21  88 SE3       30.41S FOG
MARION         LGT SNOW  23  21  92 S6        30.38S FOG     WCI  16
LANCASTER      CLOUDY    26  20  77 E5        30.41S WCI  20
ZANESVILLE     LGT SNOW  24  21  88 SE3       30.42F VSB 3/4
NEW PHILLY     NOT AVBL
$$




USA.gov is the U.S. government's official web portal to all federal, state and local government web resources and services.